|
NORAD ID: 32063 Int'l Code: 2007-042B
Perigee: 693.7 km
Apogee: 775.6 km
Inclination: 98.2 °
Period: 99.3 minutes
Semi major axis: 7105 km
Launch date: September 19, 2007
Source: People's Republic of China (PRC)
Note: This is a ROCKET BODY
Two Line Element Set (TLE):
1 32063U 07042B 13141.17289727 .00000215 00000-0 66380-4 0 7061
2 32063 098.2201 216.4334 0057639 079.5313 332.9130 14.49431638299935
Source:
NASA's NSSDC Master Catalog entry for CZ-4 R/B
|